This is the latest recevied weather packets stored in our database for station/object KC3BBT-13. If no packets are shown the sender has not sent any weather packets the latest 10 day(s).
| Time | Temp. | Humidity | Pressure | Rain* | Wind** | Luminosity | Snow |
|---|---|---|---|---|---|---|---|
| 1778133661 | 13.89° C | 89% | 1011.4 hPa | 0.25 mm | - | - | - |
| 1778132846 | 13.89° C | 89% | 1011.2 hPa | 1.02 mm | - | - | - |
| 1778132016 | 13.89° C | 88% | 1011.6 hPa | 1.52 mm | - | - | - |
| 1778131259 | 13.89° C | 87% | 1011.2 hPa | 1.52 mm | - | - | - |
| 1778131186 | 13.89° C | 87% | 1011.2 hPa | 1.52 mm | - | - | - |
| 1778130351 | 14.44° C | 86% | 1011.5 hPa | 1.52 mm | - | - | - |
| 1778129683 | 15° C | 83% | 1012 hPa | 1.02 mm | - | - | - |
| 1778129575 | 15° C | 83% | 1012 hPa | 1.02 mm | - | - | - |
| 1778128836 | 15.56° C | 81% | 1011.5 hPa | 0.76 mm | - | - | - |
| 1778127999 | 16.11° C | 78% | 1011.8 hPa | 0 mm | - | - | - |
| 1778127941 | 16.11° C | 78% | 1011.8 hPa | 0 mm | - | - | - |
| 1778127152 | 16.11° C | 77% | 1011.5 hPa | 0 mm | - | - | - |
| 1778126392 | 16.67° C | 77% | 1011.3 hPa | 0 mm | - | - | - |
| 1778125511 | 17.22° C | 76% | 1010.9 hPa | 0 mm | - | - | - |
| 1778124766 | 17.22° C | 76% | 1011 hPa | 0 mm | - | - | - |
| 1778124731 | 17.22° C | 76% | 1011 hPa | 0 mm | - | - | - |
| 1778124006 | 17.22° C | 75% | 1011.1 hPa | 0 mm | - | - | - |
| 1778123201 | 17.78° C | 75% | 1010.6 hPa | 0 mm | - | - | - |
| 1778122482 | 17.78° C | 75% | 1010.5 hPa | 0 mm | - | - | - |
| 1778122419 | 17.78° C | 75% | 1010.5 hPa | 0 mm | - | - | - |
| 1778121636 | 17.78° C | 76% | 1010.7 hPa | 0 mm | - | - | - |
| 1778120881 | 18.33° C | 77% | 1010.3 hPa | 0 mm | - | - | - |
| 1778120078 | 18.33° C | 77% | 1010.4 hPa | 0 mm | - | - | - |
| 1778119196 | 18.89° C | 78% | 1010.2 hPa | 0 mm | - | - | - |
| 1778118421 | 18.89° C | 78% | 1010 hPa | 0 mm | - | - | - |
* Rain latest hour (hover to see other rain measurements)
** Current wind speed in m/s (hover to see current wind gust speed)